Weather reports worldwide

Advertisment
Wilkes-Barre/Scrant PA, United States of America (72513): temperature & dewpoint: 03.12.2018 22:00:00 - 09.12.2018 22:00:00 (EST)Wilkes-Barre/Scrant PA, United States of America (72513): wind speed & gusts: 03.12.2018 22:00:00 - 09.12.2018 22:00:00 (EST)Wilkes-Barre/Scrant PA, United States of America (72513): wind direction: 03.12.2018 22:00:00 - 09.12.2018 22:00:00 (EST)Wilkes-Barre/Scrant PA, United States of America (72513): reduced air pressure: 03.12.2018 22:00:00 - 09.12.2018 22:00:00 (EST)Wilkes-Barre/Scrant PA, United States of America (72513): visibility: 03.12.2018 22:00:00 - 09.12.2018 22:00:00 (EST)Wilkes-Barre/Scrant PA, United States of America (72513): precipitation: 03.12.2018 22:00:00 - 09.12.2018 22:00:00 (EST)
Date & Time tt [°C] td [°C] ff [km/h] ff [kn] fx [km/h] fx [kn] dd ppp [hPa] vv [km] rr [mm]
09.12.2018 22:00:00 -4,4 -11,1 0 0 - - N 1022,6 15 -
09.12.2018 21:00:00 -4,4 -8,9 0 0 - - N 1023,1 15 -
09.12.2018 20:00:00 -3,9 -9,4 0 0 - - N 1023,7 15 -
09.12.2018 19:00:00 -3,3 -9,4 0 0 - - N 1023,9 16 0,0
09.12.2018 18:00:00 -2,8 -9,4 11 6 - - SSW 1023,6 16 -
09.12.2018 17:00:00 -2,8 -9,4 8 4 - - WSW 1024,6 16 -
09.12.2018 16:00:00 -1,7 -10,0 13 7 - - SW 1025,6 16 0,0
09.12.2018 15:00:00 -1,1 -10,0 9 5 - - SW 1025,8 16 -
09.12.2018 14:00:00 -1,1 -10,0 18 10 - - WSW 1026,5 16 -
09.12.2018 13:00:00 -1,1 -9,4 13 7 - - W 1027,4 16 0,0
09.12.2018 12:00:00 -2,2 -8,3 8 4 - - - 1028,6 15 -
09.12.2018 11:00:00 -3,9 -8,3 5 3 - - - 1029,7 15 -
09.12.2018 10:00:00 -5,0 -8,3 0 0 - - N 1030,2 15 0,0
09.12.2018 09:00:00 -6,7 -10,0 8 4 - - E 1030,8 15 -
09.12.2018 08:00:00 -7,8 -11,1 8 4 - - E 1031,4 15 -
09.12.2018 07:00:00 -7,8 -10,6 5 3 - - ESE 1031,8 16 0,0
09.12.2018 06:00:00 -8,3 -10,6 8 4 - - ESE 1031,4 16 -
09.12.2018 05:00:00 -8,3 -10,6 5 3 - - ESE 1032,3 16 -
09.12.2018 04:00:00 -7,8 -10,0 5 3 - - ESE 1031,9 16 0,0
09.12.2018 03:00:00 -7,2 -10,6 9 5 - - E 1032,6 15 -
09.12.2018 02:00:00 -7,2 -10,0 0 0 - - N 1033,4 16 -
09.12.2018 01:00:00 -7,2 -10,0 0 0 - - N 1033,1 16 0,0
09.12.2018 00:00:00 -5,0 -10,0 5 3 - - SSW 1033,6 16 -
08.12.2018 23:00:00 -4,4 -10,0 5 3 - - SW 1034,0 16 -
08.12.2018 22:00:00 -3,9 -11,7 8 4 - - W 1033,7 16 0,0
08.12.2018 21:00:00 -3,3 -10,0 5 3 - - WSW 1033,4 16 -
08.12.2018 20:00:00 -3,3 -10,6 9 5 - - WNW 1033,1 16 -
08.12.2018 19:00:00 -2,8 -11,1 13 7 - - W 1033,4 16 0,0
08.12.2018 18:00:00 -2,2 -10,6 9 5 - - WNW 1032,9 16 -
08.12.2018 17:00:00 -2,2 -10,6 16 9 - - NNW 1032,3 16 -
08.12.2018 16:00:00 -1,1 -9,4 15 8 - - NW 1031,9 15 0,0
08.12.2018 15:00:00 -0,6 -11,1 11 6 - - WNW 1030,7 16 -
08.12.2018 14:00:00 -0,6 -9,4 21 11 - - WNW 1030,1 16 -
08.12.2018 13:00:00 1,1 -8,3 11 6 - - NW 1029,9 16 0,0
08.12.2018 12:00:00 -1,1 -8,3 15 8 - - W 1030,7 16 -
08.12.2018 11:00:00 -1,7 -8,3 16 9 - - W 1031,8 15 -
08.12.2018 10:00:00 -2,2 -8,3 13 7 - - WSW 1032,0 16 0,0
08.12.2018 09:00:00 -3,9 -8,3 8 4 - - WSW 1031,7 15 -
08.12.2018 08:00:00 -5,0 -8,9 5 3 - - WSW 1030,9 15 -
08.12.2018 07:00:00 -5,6 -8,9 5 3 - - SSE 1030,7 16 0,0
08.12.2018 06:00:00 -5,6 -9,4 0 0 - - N 1030,2 16 -
08.12.2018 05:00:00 -6,1 -8,9 0 0 - - N 1030,5 16 -
08.12.2018 04:00:00 -5,6 -8,9 0 0 - - N 1030,4 16 0,0
08.12.2018 03:00:00 -5,6 -8,9 0 0 - - N 1031,2 16 -
08.12.2018 02:00:00 -6,1 -8,9 0 0 - - N 1030,5 16 -
08.12.2018 01:00:00 -6,7 -9,4 0 0 - - N 1030,5 16 0,0
08.12.2018 00:00:00 -7,2 -10,0 0 0 - - N 1030,6 16 -
07.12.2018 23:00:00 -7,2 -10,0 0 0 - - N 1030,7 16 -
07.12.2018 22:00:00 -6,7 -12,8 0 0 - - N 1030,1 16 0,0
07.12.2018 21:00:00 -5,0 -11,1 8 4 - - W 1030,3 16 -
07.12.2018 20:00:00 -3,9 -11,1 13 7 - - WNW 1030,6 16 -
07.12.2018 19:00:00 -3,3 -11,7 9 5 - - WNW 1030,6 16 0,0
07.12.2018 18:00:00 -3,3 -11,7 15 8 - - WNW 1030,3 16 -
07.12.2018 17:00:00 -2,8 -12,2 22 12 - - NW 1029,8 16 -
07.12.2018 16:00:00 -2,2 -11,7 18 10 - - WNW 1029,3 16 0,0
07.12.2018 15:00:00 -1,1 -10,6 18 10 - - NW 1029,0 16 -
07.12.2018 14:00:00 -1,1 -11,1 22 12 - - W 1028,5 16 -
07.12.2018 13:00:00 -1,7 -11,7 22 12 - - WNW 1028,5 16 0,0
07.12.2018 12:00:00 -1,7 -10,6 24 13 - - WNW 1029,4 16 -
07.12.2018 11:00:00 -2,2 -11,1 16 9 - - NW 1029,5 16 -
07.12.2018 10:00:00 -2,2 -11,7 29 16 - - NW 1029,4 16 0,0
07.12.2018 09:00:00 -2,2 -10,0 15 8 - - WNW 1028,3 16 -
07.12.2018 08:00:00 -3,3 -7,8 9 5 - - WNW 1027,3 16 -
07.12.2018 07:00:00 -3,3 -7,8 11 6 - - W 1026,4 16 -
07.12.2018 06:00:00 -2,8 -7,8 15 8 - - NNW 1025,3 16 -
07.12.2018 05:00:00 -1,7 -5,6 16 9 - - NW 1024,6 16 -
07.12.2018 04:00:00 -1,7 -6,1 9 5 - - NW 1023,4 16 -
07.12.2018 03:00:00 -1,7 -3,9 9 5 - - SW 1022,7 16 0,0
07.12.2018 02:00:00 -1,1 -2,8 9 5 50 27 SSW 1021,8 15 0,0
07.12.2018 01:00:00 0,0 -2,8 11 6 - - WSW 1020,3 15 -
07.12.2018 00:00:00 0,6 -2,2 15 8 - - SW 1020,0 13 0,0
06.12.2018 23:00:00 0,0 -1,1 13 7 - - SW 1020,0 4,8 0,0
06.12.2018 22:00:00 0,0 -1,1 11 6 - - SW 1019,7 10 0,0
06.12.2018 21:00:00 -0,6 -1,1 11 6 - - SW 1019,6 4,8 0,0
06.12.2018 20:00:00 0,6 -2,8 18 10 - - SW 1019,7 6 0,0
06.12.2018 19:00:00 1,1 -5,6 11 6 - - SW 1019,2 16 0,0
06.12.2018 18:00:00 1,1 -6,1 15 8 - - SW 1019,4 16 -
06.12.2018 17:00:00 0,6 -6,1 15 8 - - SW 1019,6 16 -
06.12.2018 16:00:00 0,6 -6,1 15 8 - - SW 1019,7 13 0,0
06.12.2018 15:00:00 1,1 -5,6 15 8 - - SW 1019,9 15 -
06.12.2018 14:00:00 1,1 -5,6 29 16 - - WSW 1020,1 15 -
06.12.2018 13:00:00 1,1 -5,0 21 11 - - SW 1020,1 16 0,0
06.12.2018 12:00:00 0,0 -5,6 16 9 - - SW 1020,7 13 -
06.12.2018 11:00:00 0,0 -6,1 21 11 - - WSW 1022,0 15 -
06.12.2018 10:00:00 0,0 -6,1 28 15 - - WSW 1022,1 15 0,0
06.12.2018 09:00:00 -1,1 -6,1 16 9 - - WSW 1022,2 11 -
06.12.2018 08:00:00 -1,7 -6,1 15 8 - - WSW 1022,5 15 -
06.12.2018 07:00:00 -2,2 -6,1 9 5 - - SW 1022,0 15 0,0
06.12.2018 06:00:00 -2,8 -5,6 9 5 - - SW 1021,4 15 -
06.12.2018 05:00:00 -3,3 -6,1 8 4 - - SSW 1020,4 15 -
06.12.2018 04:00:00 -3,9 -6,7 9 5 - - SSW 1020,2 15 0,0
06.12.2018 03:00:00 -4,4 -7,2 9 5 - - SW 1020,6 15 -
06.12.2018 02:00:00 -4,4 -7,8 8 4 - - SSW 1020,4 15 -
06.12.2018 01:00:00 -3,9 -7,8 9 5 - - SSW 1020,4 16 0,0
06.12.2018 00:00:00 -3,9 -7,8 8 4 - - SSW 1020,3 16 -
05.12.2018 23:00:00 -3,9 -7,8 8 4 - - SSW 1020,0 16 -
05.12.2018 22:00:00 -3,9 -10,0 5 3 - - SW 1019,7 16 0,0
05.12.2018 21:00:00 -5,0 -8,3 5 3 - - SSW 1019,4 16 -
05.12.2018 20:00:00 -4,4 -8,3 0 0 - - N 1019,0 16 -
05.12.2018 19:00:00 -2,8 -9,4 0 0 - - N 1018,8 16 0,0
05.12.2018 18:00:00 -1,7 -10,0 5 3 - - NNW 1018,3 16 -
05.12.2018 17:00:00 -1,1 -10,0 8 4 - - NW 1017,9 16 -
05.12.2018 16:00:00 0,0 -10,0 8 4 - - NW 1017,4 16 0,0
05.12.2018 15:00:00 0,6 -8,3 9 5 - - W 1016,8 16 -
05.12.2018 14:00:00 -0,6 -10,0 9 5 - - W 1017,0 16 -
05.12.2018 13:00:00 0,0 -11,1 0 0 - - N 1017,1 16 0,0
05.12.2018 12:00:00 -1,7 -8,3 0 0 - - N 1017,5 16 -
05.12.2018 11:00:00 -2,8 -7,8 0 0 - - N 1018,5 16 -
05.12.2018 10:00:00 -4,4 -8,3 0 0 - - N 1019,1 16 0,0
05.12.2018 09:00:00 -5,6 -8,3 8 4 - - NE 1019,4 15 -
05.12.2018 08:00:00 -7,2 -10,0 8 4 - - E 1019,3 16 -
05.12.2018 07:00:00 -8,3 -9,4 5 3 - - E 1019,1 16 0,0
05.12.2018 06:00:00 -8,3 -9,4 5 3 - - SE 1018,8 16 -
05.12.2018 05:00:00 -7,2 -9,4 5 3 - - ESE 1018,4 16 -
05.12.2018 04:00:00 -7,2 -8,9 5 3 - - ESE 1018,5 16 0,0
05.12.2018 03:00:00 -6,7 -8,9 8 4 - - E 1018,8 16 -
05.12.2018 02:00:00 -6,7 -8,3 5 3 - - ESE 1018,8 16 -
05.12.2018 01:00:00 -6,7 -8,3 0 0 - - N 1019,1 16 0,0
05.12.2018 00:00:00 -5,6 -8,3 5 3 - - ENE 1019,3 16 -
04.12.2018 23:00:00 -6,1 -8,3 0 0 - - N 1019,6 15 -
04.12.2018 22:00:00 -5,6 -10,0 0 0 - - N 1019,7 16 0,0
04.12.2018 21:00:00 -4,4 -8,9 0 0 - - N 1019,6 16 -
04.12.2018 20:00:00 -3,9 -8,9 11 6 - - N 1018,6 16 -
04.12.2018 19:00:00 -3,3 -8,9 11 6 - - NNE 1018,3 16 0,0
04.12.2018 18:00:00 -2,8 -8,9 15 8 - - N 1017,9 16 -
04.12.2018 17:00:00 -1,7 -8,3 15 8 - - N 1017,1 16 -
04.12.2018 16:00:00 -0,6 -8,3 16 9 - - NW 1016,5 16 0,0
04.12.2018 15:00:00 0,6 -8,3 24 13 - - NNW 1016,0 16 -
04.12.2018 14:00:00 0,0 -7,8 21 11 - - N 1015,9 16 -
04.12.2018 13:00:00 0,0 -7,8 21 11 - - NNW 1016,3 16 -
04.12.2018 12:00:00 0,0 -7,2 29 16 - - NNW 1016,2 16 -
04.12.2018 11:00:00 0,6 -6,7 24 13 - - NW 1016,7 16 -
04.12.2018 10:00:00 0,0 -5,0 31 17 - - NNW 1016,3 16 0,0
04.12.2018 09:00:00 0,0 -4,4 18 10 - - WNW 1015,4 16 -
04.12.2018 08:00:00 0,0 -5,0 18 10 - - NNW 1014,8 16 0,0
04.12.2018 07:00:00 0,0 -3,3 11 6 - - NW 1014,2 15 0,0
04.12.2018 06:00:00 0,0 -3,9 13 7 - - N 1013,1 16 -
04.12.2018 05:00:00 0,0 -2,8 18 10 - - NNW 1012,6 15 0,0
04.12.2018 04:00:00 0,0 -3,9 13 7 - - N 1012,1 16 0,0
04.12.2018 03:00:00 0,0 -2,8 15 8 - - NNW 1011,6 15 0,0
04.12.2018 02:00:00 0,6 -3,3 16 9 - - NW 1010,6 16 -
04.12.2018 01:00:00 1,1 -2,2 13 7 - - NNW 1010,1 15 0,0
04.12.2018 00:00:00 1,7 -1,7 8 4 - - - 1009,6 16 -
03.12.2018 23:00:00 2,2 -0,6 8 4 - - - 1009,1 16 0,0
03.12.2018 22:00:00 2,8 1,1 18 10 - - NNW 1008,3 13 0,3

tt = temperature
td = dewpoint
ff = wind speed
fx = gusts
dd = wind direction
ppp = reduced air pressure
vv = visibility
rr = precipitation

Next stations